User: anonymous   Login
Location: Helsinki
(60.1699°N, 24.9384°E)
Time: 22:13:34
(UTC+03:00)
Language:

Courier 1B - Orbit

View from above orbital plane
View from above orbital plane
View from above satellite
View from above satellite

Ground track
Ground track

The orbit data is extracted from the following two-line orbital elements,

1 00058U 60013A   22275.42381905  .00000104  00000-0  26604-4 0  9990
2 00058  28.3263 168.4253 0165014 158.6790 202.0725 13.46338730 51485
Epoch (UTC): 02 October 2022 10:10:17
Eccentricity: 0.0165014
inclination: 28.3263°
perigee height: 962 km
apogee height: 1209 km
right ascension of ascending node: 168.4253°
argument of perigee: 158.6790°
revolutions per day: 13.46338730
mean anomaly at epoch: 202.0725°
orbit number at epoch: 5148

The dashed part of the orbit path shows where the satellite is in the earth's shadow,  

DLR